Roseburg, OR (97470)

11:43 AM PDT on March 24, 2017 (GMT -0700)
West Umpqua Street | | Change Station

Elev 0 ft 43.22 °N, 123.36 °W | Updated 5 minutes ago

Light Rain
Light Rain
46.0 °F
Feels Like 46 °F
N
0.6
Wind Variable Wind from North
Gusts 2.5 mph

Today
High -- | Low -- °F
--% Chance of Precip.
Yesterday
High -- | Low -- °F
Precip. -- in
Pressure 29.98 in
Visibility 9.0 miles
Clouds Few 800 ft
Mostly Cloudy 4800 ft
Overcast 5500 ft
Windchill 46 °F
Dew Point 43 °F
Humidity 89%
Rainfall 0.47 in
Snow Depth Not available.
7:08 AM 7:30 PM
Waning Crescent, 13% visible
METAR KRBG 241753Z AUTO 23005KT 9SM -RA FEW008 BKN048 OVC055 08/07 A2997 RMK AO2 SLP150 P0003 60048 T00780067 10106 20072 51015
Pressure 29.98 in
Visibility 9.0 miles
Clouds Few 800 ft
Mostly Cloudy 4800 ft
Overcast 5500 ft
Windchill 46 °F
Dew Point 43 °F
Humidity 89%
Rainfall 0.47 in
Snow Depth Not available.
7:08 AM 7:30 PM
Waning Crescent, 13% visible
METAR KRBG 241753Z AUTO 23005KT 9SM -RA FEW008 BKN048 OVC055 08/07 A2997 RMK AO2 SLP150 P0003 60048 T00780067 10106 20072 51015

Get Severe Weather Alerts

Thanks for signing up!

Be on the lookout for a verification email in your inbox.

You'll start receiving the daily forecast at 8 AM.

×

10-Day Weather Forecast

Almanac

Astronomy

Mar. 24, 2017 Rise Set
Actual Time
Civil Twilight
Nautical Twilight
Astronomical Twilight
Moon
Length of Visible Light
Length of Day
Tomorrow will be .
, % of the Moon is Illuminated

Today's Extremes

State Highs State Lows

Community

WunderPhotos

Upload Photos

1,962,540 photos uploaded!

WunderBlog® & News

Nearby

Air Quality

  Air Quality AQ Index Pollutant
Not available.

Snow Depth

Station Depth Elevation

Earthquake Activity

City Distance Mag. Time & Date
Minimum magnitude displayed is 2.5.

Earthquake Activity

City Distance Mag. Time & Date
Minimum magnitude displayed is 2.5.

Coastal Water Temperatures

Place Temperature

Stations

Nearby Weather Stations

Station Location Temp. Windchill Dew Point Humidity Wind Precip. Elev Updated Type
                   

Watches & Warnings

There are currently no watches in effect.